DW4212 Weather Reports


time (UTC)temp
C
wind
direction
speed
KPH
gust
KPH
rain 1hr
cm
rain 24hr
cm
rain mn
cm
humidity
%
barometer
mb
20260503072921 9 222 0.0 0.0 1.19 10.39 0.43 93 1014.9
20260503071913 10 221 0.0 0.0 1.30 10.11 0.38 93 1014.9
20260503070920 10 221 0.0 0.0 1.30 9.60 0.28 93 1015.3
20260503054916 10 221 0.0 0.0 0.00 10.39 0.00 93 1014.8
20260503053925 10 221 0.0 0.0 0.00 10.39 0.00 93 1014.7
20260503052925 10 221 0.0 0.0 0.00 10.39 0.00 93 1014.7
20260503051919 10 221 0.0 0.0 0.00 10.39 0.00 93 1014.8
20260503050927 10 221 0.0 0.0 0.00 10.39 0.00 92 1014.8
20260503045930 10 221 0.0 0.0 0.00 10.39 0.00 92 1014.8
20260503044919 10 221 0.0 0.0 0.00 10.39 0.00 93 1014.9
20260503043912 10 221 0.0 0.0 0.00 10.39 0.00 93 1014.9
20260503042912 10 221 0.0 0.0 0.00 10.39 0.00 92 1014.9
20260503041922 9 221 0.0 0.0 0.00 10.39 0.00 92 1014.9
20260503040915 9 221 0.0 0.0 0.00 10.39 0.00 92 1015.0
20260503035916 9 221 0.0 0.0 0.00 10.39 0.00 92 1015.0
20260503034926 9 221 0.0 0.0 0.00 10.39 0.00 92 1015.2
20260503033914 9 221 0.0 0.0 0.00 10.39 0.00 92 1015.3
20260503032920 9 221 0.0 0.0 0.00 10.39 0.00 92 1015.4
20260503031929 9 221 0.0 0.0 0.00 10.39 0.00 92 1015.5
20260503030918 9 221 0.0 0.0 0.00 10.39 0.00 92 1015.4
20260503025920 9 221 0.0 0.0 0.00 10.39 0.00 92 1015.4
20260503024912 9 221 0.0 0.0 0.00 10.39 0.00 92 1015.4
20260503023920 10 221 0.0 0.0 0.00 10.39 0.00 92 1015.5
20260503022922 10 221 0.0 0.0 0.00 10.39 0.00 92 1015.7
20260503021912 10 221 0.0 0.0 0.00 10.39 0.00 92 1015.7
20260503020914 10 221 0.0 0.0 0.00 10.39 0.00 92 1015.7
20260503015916 10 221 0.0 0.0 0.00 10.39 0.00 92 1015.7
20260503014925 10 221 0.0 0.0 0.00 10.39 0.00 92 1015.8
20260503013915 10 221 0.0 0.0 0.00 10.39 0.00 92 1015.8
20260503012926 10 221 0.0 0.0 0.00 10.39 0.00 92 1015.8
20260503011914 10 221 0.0 0.0 0.00 10.39 0.00 91 1016.0
20260503010925 10 221 0.0 0.0 0.00 10.39 0.00 92 1016.0
20260503005926 10 221 0.0 0.0 0.00 10.39 0.00 91 1016.2
20260503004920 10 221 0.0 0.0 0.00 10.39 0.00 91 1016.2
20260503003930 10 221 0.0 0.0 0.00 10.39 0.00 91 1016.2
20260503002930 10 221 0.0 0.0 0.00 10.39 0.00 91 1016.2
20260503001919 10 221 0.0 0.0 0.00 10.39 0.00 91 1016.4
20260503000912 10 221 0.0 0.0 0.00 10.39 0.00 91 1016.4
20260502235915 10 221 0.0 0.0 0.00 10.39 2.08 91 1016.4
20260502234924 10 221 0.0 0.0 0.00 10.39 2.08 91 1016.8
20260502233913 10 221 0.0 0.0 0.00 10.39 2.08 90 1016.8
20260502232919 10 221 0.0 0.0 0.00 10.39 2.08 90 1016.9
20260502231929 10 221 0.0 0.0 0.00 10.39 2.08 90 1016.9
20260502230914 10 221 0.0 0.0 0.00 10.39 2.08 90 1016.9
20260502225917 10 221 0.0 0.0 0.00 10.39 2.08 90 1016.9
20260502224930 10 221 0.0 0.0 0.00 10.39 2.08 90 1016.9
20260502223919 10 221 0.0 0.0 0.00 10.39 2.08 90 1016.8
20260502222921 10 221 0.0 0.0 0.00 10.39 2.08 90 1016.8
20260502221914 10 221 0.0 0.0 0.00 10.39 2.08 90 1016.9
20260502220923 10 221 0.0 0.0 0.00 10.39 2.08 90 1017.0
20260502215925 10 221 0.0 0.0 0.00 10.39 2.08 89 1017.1
20260502214914 10 221 0.0 0.0 0.00 10.39 2.08 89 1017.2
20260502213928 10 221 0.0 0.0 0.00 10.39 2.08 89 1017.2
20260502212928 10 221 0.0 0.0 0.00 10.39 2.08 89 1017.2
20260502211958 10 221 0.0 0.0 0.00 10.39 2.08 89 1017.1
20260502210919 10 221 0.0 0.0 0.00 10.39 2.08 88 1017.1
20260502205921 11 221 0.0 0.0 0.00 10.39 2.08 88 1017.1
20260502204913 11 221 0.0 0.0 0.00 10.39 2.08 88 1016.9
20260502203920 11 221 0.0 0.0 0.00 10.39 2.08 88 1016.7
20260502202923 11 221 0.0 0.0 0.00 10.39 2.08 88 1016.5
20260502201929 11 221 0.0 0.0 0.00 10.39 2.08 88 1016.2
20260502200918 12 221 0.0 6.4 0.00 10.39 2.08 87 1016.2
20260502195920 12 219 0.0 4.8 0.00 10.39 2.08 87 1016.1
20260502194928 12 257 0.0 1.6 0.00 10.39 2.08 87 1016.0
20260502193918 12 257 0.0 0.0 0.00 10.39 2.08 87 1016.0
20260502192924 12 257 1.6 11.3 0.00 10.39 2.08 86 1016.1
20260502191914 12 257 0.0 6.4 0.00 10.39 2.08 86 1016.1
20260502190923 12 257 0.0 12.9 0.00 10.39 2.08 86 1015.8
20260502185922 12 244 0.0 3.2 0.00 10.39 2.08 86 1015.8
20260502184916 13 244 0.0 0.0 0.00 10.39 2.08 86 1015.9
20260502183924 13 245 0.0 8.0 0.00 10.39 2.08 86 1015.9
20260502182924 13 246 0.0 3.2 0.00 10.39 2.08 87 1015.9
20260502181915 13 260 1.6 11.3 0.00 10.39 2.08 87 1015.8
20260502180924 13 252 1.6 6.4 0.00 10.39 2.08 88 1016.1
20260502163925 12 258 0.0 8.0 1.40 10.39 2.08 89 1016.5
20260502162926 12 258 1.6 11.3 1.40 10.39 2.08 88 1016.5
20260502161915 12 258 0.0 14.5 1.40 10.39 2.08 87 1016.6
20260502160929 12 267 3.2 16.1 1.30 10.31 2.06 85 1016.6
20260502151914 15 274 4.8 14.5 0.00 8.99 1.80 85 1016.8
20260502150920 15 257 6.4 12.9 0.00 8.99 1.80 89 1016.9
20260502122911 12 170 0.0 4.8 1.19 8.00 1.60 93 1018.3
20260502120917 13 171 0.0 11.3 0.00 6.81 1.37 93 1018.8
20260502115916 12 165 1.6 11.3 0.00 6.81 1.37 93 1018.9
20260502114926 12 180 0.0 8.0 0.00 6.81 1.37 93 1019.0
20260502113913 12 172 1.6 9.7 0.00 6.81 1.37 93 1019.2
20260502112918 12 178 0.0 4.8 0.10 6.81 1.37 93 1019.4
20260502111926 12 169 1.6 6.4 0.20 6.81 1.37 93 1019.6
20260502110958 12 176 0.0 6.4 0.20 6.81 1.37 93 1019.7
20260502105929 12 176 0.0 6.4 0.30 6.81 1.37 93 1019.8
20260502104917 12 176 0.0 0.0 0.41 6.81 1.37 93 1020.0
20260502103924 12 176 0.0 4.8 0.30 6.71 1.35 93 1020.1
20260502101919 11 176 1.6 9.7 0.20 6.60 1.32 93 1020.3
20260502100924 11 171 1.6 4.8 0.41 6.60 1.32 93 1020.3
20260502090912 11 155 0.0 3.2 2.59 6.20 1.24 92 1020.6